Location: NJAA Observatory
(40.6819°N, 74.8979°W)
Time: 06:07:23
(UTC-04:00)

S-56A Canister/Altair - Visible Passes

Search period start: 01 September 2015 00:00
Search period end: 11 September 2015 00:00
Orbit: 636 x 2499 km, 38.9° (Epoch: 30 August)

Date Brightness Start Highest point End Pass type
(mag) Time Alt. Az. Time Alt. Az. Time Alt. Az.
01 Sep 10.1 00:25:52 10° WNW 00:37:35 51° WSW 00:37:35 51° WSW visible
01 Sep 11.4 02:34:37 10° W 02:34:59 11° W 02:34:59 11° W visible
01 Sep 10.0 19:40:50 10° WSW 19:53:35 76° SSE 20:08:50 10° E visible
01 Sep 9.9 21:46:12 10° W 22:00:43 83° S 22:08:55 35° ESE visible
01 Sep 9.9 23:52:39 10° WNW 00:06:19 60° SW 00:06:19 60° SW visible
02 Sep 11.2 02:00:49 10° W 02:03:43 16° W 02:03:43 16° W visible
02 Sep 9.9 21:13:22 10° W 21:27:25 84° S 21:37:41 27° E visible
02 Sep 9.8 23:19:32 10° WNW 23:34:21 65° SSW 23:35:04 64° SSW visible
03 Sep 11.0 01:27:10 10° W 01:32:28 22° W 01:32:28 22° W visible
03 Sep 10.0 20:40:37 10° W 20:54:09 84° S 21:06:28 19° E visible
03 Sep 9.8 22:46:30 10° W 23:01:10 68° SSW 23:03:52 60° SSE visible
04 Sep 10.8 00:53:41 10° W 01:01:16 29° WSW 01:01:16 29° WSW visible
04 Sep 10.0 20:07:58 10° W 20:20:54 84° S 20:35:18 13° E visible
04 Sep 9.9 22:13:33 10° W 22:27:58 71° SSW 22:32:42 51° SE visible
05 Sep 10.6 00:20:20 10° W 00:30:07 36° WSW 00:30:07 36° WSW visible
05 Sep 10.0 19:35:24 10° W 19:47:42 83° S 20:03:01 10° E visible
05 Sep 9.9 21:40:43 10° W 21:54:44 74° SSW 22:01:34 41° SE visible
05 Sep 10.3 23:47:06 10° WNW 23:58:59 43° SW 23:58:59 43° SW visible
06 Sep 9.9 21:07:56 10° W 21:21:30 77° SSW 21:30:30 31° ESE visible
06 Sep 10.2 23:13:59 10° WNW 23:27:50 48° SSW 23:27:55 48° SSW visible
07 Sep 11.4 01:23:28 10° W 01:25:20 13° W 01:25:20 13° W visible
07 Sep 9.9 20:35:16 10° W 20:48:17 79° SSW 20:59:28 23° ESE visible
07 Sep 10.1 22:40:59 10° WNW 22:54:45 52° SSW 22:56:53 49° S visible
08 Sep 11.2 00:49:29 10° W 00:54:18 18° WSW 00:54:18 18° WSW visible
08 Sep 9.9 20:02:41 10° W 20:15:06 80° S 20:28:30 15° ESE visible
08 Sep 10.1 22:08:06 10° WNW 22:21:38 55° SSW 22:25:55 45° SSE visible
09 Sep 11.0 00:15:48 10° W 00:23:20 23° WSW 00:23:20 23° WSW visible
09 Sep 9.9 19:30:11 10° W 19:41:57 82° S 19:57:08 10° ESE visible
09 Sep 10.1 21:35:18 10° W 21:48:31 59° SSW 21:55:01 38° SSE visible
09 Sep 10.8 23:42:21 10° W 23:52:26 28° SW 23:52:26 28° SW visible
10 Sep 10.1 21:02:36 10° W 21:15:23 62° SSW 21:24:09 30° SE visible
10 Sep 10.7 23:09:05 10° W 23:21:06 31° SW 23:21:35 31° SW visible
